{"data":{"norad_id":60530,"epoch":"2026-09-22T17:20:46.155552Z","epoch_age_seconds":97010,"freshness":"FRESH","line1":"1 60530U 24149BQ  26265.72275643  .00000660  00000+0  62784-4 0  9993","line2":"2 60530  97.6705 338.5449 0001359  78.5658 281.5716 14.96707711114541","mean_motion":14.96707711,"eccentricity":0.0001359,"inclination_deg":97.6705,"raan_deg":338.5449,"arg_perigee_deg":78.5658,"mean_anomaly_deg":281.5716,"bstar":6.2784e-5,"rev_number":11454,"period_min":96.211169984411,"perigee_km":576.13200313718,"apogee_km":578.0224303613,"semimajor_km":6955.2142167492,"source":"CELESTRAK","updated_at":"2026-09-23T09:00:20.667991Z"}}